Location: Bower School (historical)
(37.8389°N, 89.5348°W)
Time: 03:20:12
(UTC+00:00)

Cosmos-2242 - Visible Passes

Search period start: 17 March 2026 00:00
Search period end: 27 March 2026 00:00
Orbit: 567 x 588 km, 82.5° (Epoch: 15 March)

Date Brightness Start Highest point End Pass type
(mag) Time Alt. Az. Time Alt. Az. Time Alt. Az.
17 Mar 5.7 11:07:14 10° SE 11:10:35 23° E 11:13:57 10° NE visible
18 Mar 5.0 11:11:02 10° SSE 11:14:46 32° E 11:18:32 10° NNE visible
19 Mar 4.3 11:14:58 10° SSE 11:18:58 45° E 11:23:00 10° NNE visible
20 Mar 3.5 11:19:03 10° S 11:23:11 64° E 11:27:23 10° NNE visible
21 Mar 3.0 11:23:14 10° S 11:27:25 89° WSW 11:31:41 10° N visible
22 Mar 2.9 11:27:31 10° SSW 11:31:41 64° W 11:35:54 10° N visible
23 Mar 6.2 09:57:45 10° ESE 09:59:27 12° E 10:01:09 10° ENE visible
23 Mar 3.3 11:31:57 10° SSW 11:35:57 45° W 11:40:02 10° N visible
24 Mar 5.9 10:00:51 10° SE 10:03:34 17° E 10:06:18 10° NE visible
25 Mar 5.4 10:04:23 10° SE 10:07:42 23° E 10:11:03 10° NE visible
26 Mar 4.8 10:08:08 10° SSE 10:11:51 31° E 10:15:37 10° NNE visible
